Regional Weather Roundup
Issued by NWS Sioux Falls, SD

Home | Current Version | Previous Version | Text Only | Print | Product List | Glossary On
Versions: 1 2 3 4 5 6 7 8 9 10 11 12 13 14 15 16 17 18 19 20 21 22 23 24 25 26 27 28 29 30 31 32 33 34 35 36 37 38 39 40 41 42 43 44 45 46 47 48 49 50
000
ASUS43 KFSD 261910
RWRFSD

WEATHER ROUNDUP FOR SE SOUTH DAKOTA/SW MINNESOTA/NW IOWA
NATIONAL WEATHER SERVICE SIOUX FALLS SD
100 PM CST MON JAN 26 2015

NOTE: "FAIR" INDICATES FEW OR NO CLOUDS BELOW 12,000 FEET WITH NO
SIGNIFICANT WEATHER AND OR OBSTRUCTIONS TO VISIBILITY.


SDZ038>040-050-052>070-262000-
SOUTHEAST SOUTH DAKOTA

CITY           SKY/WX    TMP DP  RH WIND       PRES   REMARKS
CHAMBERLAIN    SUNNY     52  34  51 NW15      29.99S
HURON          SUNNY     49  38  65 NW17G28   29.92F
MADISON        FAIR      43  43 100 NW23G29   29.89F
MITCHELL       SUNNY     52  39  61 NW17      29.94F
SIOUX FALLS    MOSUNNY   47  38  71 NW18      29.89S
WINNER         FAIR      58  31  35 NW17      30.01F
YANKTON        SUNNY     52  37  58 NW18      29.94F
$$

MNZ071-072-080-081-089-090-097-098-262000-
SOUTHWEST MINNESOTA

CITY           SKY/WX    TMP DP  RH WIND       PRES   REMARKS
FAIRMONT       SUNNY     45  34  65 NW21      29.78S
JACKSON        SUNNY     45  36  70 NW15      29.80S
LUVERNE        SUNNY     45  37  76 NW16G28   29.88R
MARSHALL       SUNNY     46  36  66 N23G31    29.84R
MONTEVIDEO     MOSUNNY   45  37  76 N22G30    29.82R
PIPESTONE      SUNNY     43  36  75 NW21G26   29.86S
REDWOOD FALLS  PTSUNNY   45  34  65 N21G26    29.80R
TRACY          SUNNY     44  37  76 NW15      29.83R
WINDOM         SUNNY     43  37  81 W18G24    29.80S
WORTHINGTON    SUNNY     43  36  75 NW22      29.84R
$$

IAZ001>003-012>014-020>022-031-032-NEZ013-014-SDZ071-262000-
NORTHWEST IOWA

CITY           SKY/WX    TMP DP  RH WIND       PRES   REMARKS
CHEROKEE       SUNNY     46  39  78 NW14      29.87S
DENISON        SUNNY     50  39  66 NW16G23   29.87S
ESTHERVILLE    SUNNY     45  38  76 NW18G25   29.80S
LE MARS        SUNNY     48  41  76 NW17      29.91F
ORANGE CITY    SUNNY     46  37  71 NW18      29.88F
SHELDON        SUNNY     45  39  81 NW16G25   29.86S
SIOUX CITY     SUNNY     50  39  66 NW18      29.92S
SPENCER        SUNNY     47  38  71 W22       29.83S
STORM LAKE     SUNNY     45  39  81 NW20G26   29.85F
$$

ABBREVIATIONS USED IN REMARKS
   TC - TEMPERATURE IN CELSIUS
  WCI - WIND CHILL INDEX
   HX - HEAT INDEX
  VSB - VISIBILITY



USA.gov is the U.S. government's official web portal to all federal, state and local government web resources and services.